Cadillac, MI

12:16 PM EDT on August 24, 2019 (GMT -0400)
Wexford County

Weather History for KCAD - June, 2019

Change the Weather History Date:

Thursday, June 13, 2019

  Actual Average Record
Temperature  
Mean Temperature 54 °F -  
Max Temperature 61 °F 73 °F 89 °F (1954)
Min Temperature 46 °F 49 °F 32 °F (2012)
Degree Days  
Heating Degree Days 12    
Growing Degree Days 4 (Base 50)    
Moisture  
Dew Point 47 °F    
Average Humidity 81    
Maximum Humidity 95    
Minimum Humidity 39    
Precipitation  
Precipitation 0.00 in - - ()
Sea Level Pressure  
Sea Level Pressure 29.78 in    
Wind  
Wind Speed 7 mph (NNW)    
Max Wind Speed 18 mph    
Max Gust Speed 30 mph    
Visibility 10 miles    
Events Rain    
Averages and records for this station are not official NWS values.
T = Trace of Precipitation, MM = Missing Value Source: NWS Daily Summary

Daily Weather History Graph

Daily Weather History Graph

Search for Another Location

Airport or City:

Astronomy

Jun. 13, 2019 Rise Set
Actual Time 5:57 AM EDT 9:26 PM EDT
Civil Twilight 5:20 AM EDT 10:02 PM EDT
Nautical Twilight 4:32 AM EDT 10:50 PM EDT
Astronomical Twilight 3:31 AM EDT 11:52 PM EDT
Moon 5:31 PM EDT (6/13) 3:52 AM EDT (6/13)
Length of Visible Light 16h 42m
Length of Day
15h 29m
Waxing Gibbous, 85% of the Moon is Illuminated
Jun 13
Waxing Gibbous
Jun 17
Full
Jun 25
Last Quarter
Jul 2
New
Jul 9
First Quarter

Hourly Weather History & Observations

Time (EDT) Temp. Windchill Dew Point Humidity Pressure Visibility Wind Dir Wind Speed Gust Speed Precip Events Conditions
12:17 AM 55.4 °F - 53.8 °F 94% 29.79 in 10.0 mi North 3.5 mph - N/A Rain Light Rain
12:35 AM 55.6 °F - 54.0 °F 94% 29.79 in 10.0 mi NE 4.6 mph - N/A   Overcast
12:36 AM 55.6 °F - 54.0 °F 94% 29.79 in 10.0 mi NE 4.6 mph - N/A   Overcast
12:55 AM 55.4 °F - 53.8 °F 94% 29.79 in 10.0 mi Calm Calm - N/A   Overcast
12:56 AM 55.4 °F - 53.8 °F 94% 29.79 in 10.0 mi Calm Calm - N/A   Overcast
1:15 AM 55.4 °F - 53.8 °F 94% 29.78 in 10.0 mi NNE 3.5 mph - N/A Rain Rain
1:38 AM 55.4 °F - 53.8 °F 94% 29.78 in 10.0 mi NE 4.6 mph - N/A   Drizzle
1:56 AM 55.4 °F - 53.8 °F 94% 29.77 in 10.0 mi ENE 8.1 mph - N/A Rain Rain
2:15 AM 55.4 °F - 53.8 °F 94% 29.76 in 10.0 mi ENE 6.9 mph - N/A   Light Drizzle
2:16 AM 55.4 °F - 53.8 °F 94% 29.76 in 10.0 mi ENE 6.9 mph - N/A   Light Drizzle
2:35 AM 55.4 °F - 53.8 °F 94% 29.75 in 10.0 mi NE 4.6 mph - N/A   Light Drizzle
2:59 AM 55.4 °F - 53.6 °F 94% 29.73 in 10.0 mi NE 4.6 mph - N/A   Overcast
3:17 AM 55.4 °F - 53.8 °F 94% 29.73 in 10.0 mi NE 6.9 mph - N/A   Overcast
3:35 AM 55.4 °F - 53.8 °F 94% 29.72 in 10.0 mi NNE 8.1 mph - N/A Rain Rain
3:36 AM 55.4 °F - 53.8 °F 94% 29.72 in 10.0 mi NE 8.1 mph - N/A Rain Rain
3:55 AM 55.4 °F - 53.6 °F 94% 29.72 in 10.0 mi NNE 3.5 mph - N/A Rain Light Rain
4:15 AM 55.4 °F - 53.6 °F 94% 29.72 in 10.0 mi NNE 5.8 mph - N/A   Drizzle
4:38 AM 55.0 °F - 53.4 °F 94% 29.72 in 10.0 mi North 3.5 mph - N/A Rain Light Rain
4:56 AM 54.9 °F - 53.2 °F 94% 29.71 in 10.0 mi Calm Calm - N/A Rain Light Rain
5:15 AM 54.7 °F - 53.1 °F 94% 29.71 in 10.0 mi Calm Calm - N/A Rain Light Rain
5:35 AM 54.7 °F - 53.1 °F 94% 29.71 in 10.0 mi NE 3.5 mph - N/A Rain Light Rain
5:59 AM 54.7 °F - 53.1 °F 94% 29.70 in 10.0 mi NE 5.8 mph - N/A   Drizzle
6:17 AM 54.5 °F - 52.9 °F 94% 29.70 in 10.0 mi North 4.6 mph - N/A Rain Light Rain
6:35 AM 54.5 °F - 52.9 °F 94% 29.70 in 10.0 mi NNW 4.6 mph - N/A Rain Rain
6:55 AM 52.7 °F - 51.1 °F 94% 29.71 in 10.0 mi NNW 10.4 mph - N/A Rain Rain
7:15 AM 51.8 °F - 50.4 °F 95% 29.71 in 10.0 mi NNW 8.1 mph - N/A   Drizzle
7:20 AM 52.0 °F - 50.4 °F 94% 29.71 in 10.0 mi NNW 5.8 mph - N/A Rain Light Rain
7:38 AM 51.8 °F - 50.4 °F 95% 29.71 in 10.0 mi NNW 10.4 mph - N/A   Drizzle
7:56 AM 51.6 °F - 50.0 °F 94% 29.71 in 10.0 mi NNW 11.5 mph 17.3 mph N/A   Drizzle
8:15 AM 51.1 °F - 49.6 °F 95% 29.71 in 10.0 mi NNW 6.9 mph - N/A   Drizzle
8:35 AM 50.9 °F - 49.3 °F 94% 29.72 in 10.0 mi NNW 6.9 mph - N/A   Drizzle
8:36 AM 50.9 °F - 49.3 °F 94% 29.72 in 7.0 mi NNW 6.9 mph - N/A   Drizzle
8:59 AM 50.9 °F - 49.3 °F 94% 29.72 in 4.0 mi NNW 6.9 mph - N/A Rain Rain
9:17 AM 51.1 °F - 49.6 °F 95% 29.72 in 4.0 mi NNW 8.1 mph - N/A Rain Rain
9:35 AM 51.8 °F - 50.2 °F 94% 29.72 in 5.0 mi NNW 10.4 mph - N/A Rain Rain
9:55 AM 52.2 °F - 50.9 °F 95% 29.72 in 10.0 mi NNW 8.1 mph - N/A   Drizzle
9:56 AM 52.2 °F - 50.7 °F 95% 29.72 in 10.0 mi NNW 6.9 mph - N/A   Drizzle
10:15 AM 52.7 °F - 50.9 °F 94% 29.72 in 10.0 mi NNW 11.5 mph 17.3 mph N/A   Drizzle
10:20 AM 52.3 °F - 50.9 °F 95% 29.72 in 10.0 mi NNW 6.9 mph 17.3 mph N/A   Drizzle
10:38 AM 52.5 °F - 50.9 °F 94% 29.73 in 10.0 mi NNW 12.7 mph 18.4 mph N/A   Drizzle
10:56 AM 51.8 °F - 50.4 °F 95% 29.73 in 10.0 mi NNW 11.5 mph 19.6 mph N/A   Drizzle
11:15 AM 51.4 °F - 50.0 °F 95% 29.73 in 10.0 mi NNW 10.4 mph 19.6 mph N/A   Drizzle
11:16 AM 51.4 °F - 50.0 °F 95% 29.73 in 10.0 mi NNW 11.5 mph 19.6 mph N/A Rain Rain
11:35 AM 51.8 °F - 50.4 °F 95% 29.73 in 10.0 mi NNW 12.7 mph 19.6 mph N/A   Drizzle
11:36 AM 51.8 °F - 50.4 °F 95% 29.73 in 10.0 mi NNW 13.8 mph 19.6 mph N/A   Drizzle
11:58 AM 52.7 °F - 50.9 °F 94% 29.74 in 10.0 mi North 11.5 mph 20.7 mph N/A Rain Light Rain
12:17 PM 52.7 °F - 51.1 °F 94% 29.74 in 10.0 mi NNW 10.4 mph 17.3 mph N/A Rain Rain
12:35 PM 52.3 °F - 50.9 °F 95% 29.76 in 10.0 mi NNW 11.5 mph 19.6 mph N/A Rain Light Rain
12:55 PM 51.6 °F - 50.0 °F 94% 29.76 in 10.0 mi NNW 11.5 mph 21.9 mph N/A Rain Rain
12:56 PM 51.6 °F - 50.0 °F 94% 29.76 in 10.0 mi NNW 12.7 mph 21.9 mph N/A Rain Rain
1:15 PM 51.8 °F - 50.0 °F 94% 29.77 in 10.0 mi North 9.2 mph 21.9 mph N/A Rain Rain
1:20 PM 51.8 °F - 50.4 °F 95% 29.77 in 10.0 mi North 10.4 mph 21.9 mph N/A Rain Rain
1:38 PM 51.8 °F - 50.0 °F 94% 29.77 in 10.0 mi North 16.1 mph - N/A Rain Light Rain
1:56 PM 52.2 °F - 50.5 °F 94% 29.78 in 10.0 mi North 11.5 mph 19.6 mph N/A   Overcast
2:15 PM 52.9 °F - 51.3 °F 94% 29.78 in 10.0 mi North 10.4 mph 18.4 mph N/A   Overcast
2:35 PM 54.0 °F - 52.3 °F 94% 29.78 in 10.0 mi North 11.5 mph 21.9 mph N/A   Overcast
2:36 PM 54.0 °F - 52.3 °F 94% 29.78 in 10.0 mi NNW 12.7 mph 21.9 mph N/A   Overcast
2:59 PM 55.4 °F - 51.8 °F 88% 29.78 in 10.0 mi NNW 11.5 mph 25.3 mph N/A   Overcast
3:17 PM 56.3 °F - 51.8 °F 85% 29.78 in 10.0 mi NNW 10.4 mph 16.1 mph N/A   Overcast
3:35 PM 55.9 °F - 49.5 °F 79% 29.79 in 10.0 mi NNW 18.4 mph 25.3 mph N/A   Overcast
3:55 PM 58.3 °F - 48.0 °F 69% 29.79 in 10.0 mi NNW 18.4 mph 28.8 mph N/A   Overcast
4:15 PM 59.0 °F - 47.1 °F 65% 29.79 in 10.0 mi NNW 13.8 mph 29.9 mph N/A   Overcast
4:38 PM 61.0 °F - 45.7 °F 57% 29.80 in 10.0 mi NNW 17.3 mph 28.8 mph N/A   Overcast
4:56 PM 59.7 °F - 43.0 °F 54% 29.81 in 10.0 mi NW 18.4 mph 26.5 mph N/A   Overcast
5:15 PM 60.4 °F - 42.8 °F 52% 29.82 in 10.0 mi NW 17.3 mph 24.2 mph N/A   Mostly Cloudy
5:35 PM 59.0 °F - 40.3 °F 50% 29.82 in 10.0 mi NNW 12.7 mph 27.6 mph N/A   Scattered Clouds
5:59 PM 60.1 °F - 39.2 °F 46% 29.83 in 10.0 mi NNW 16.1 mph 26.5 mph N/A   Clear
6:17 PM 60.3 °F - 37.9 °F 44% 29.83 in 10.0 mi NNW 17.3 mph 27.6 mph N/A   Clear
6:36 PM 59.0 °F - 37.2 °F 44% 29.84 in 10.0 mi NNW 13.8 mph 24.2 mph N/A   Clear
6:55 PM 59.4 °F - 36.9 °F 43% 29.84 in 10.0 mi NNW 17.3 mph 27.6 mph N/A   Clear
7:15 PM 59.4 °F - 35.6 °F 41% 29.85 in 10.0 mi NNW 17.3 mph 24.2 mph N/A   Clear
7:38 PM 59.0 °F - 34.0 °F 39% 29.85 in 10.0 mi NW 12.7 mph 23.0 mph N/A   Clear
7:56 PM 58.3 °F - 34.3 °F 41% 29.86 in 10.0 mi NW 11.5 mph 18.4 mph N/A   Clear
8:15 PM 58.1 °F - 34.7 °F 41% 29.86 in 10.0 mi NNW 9.2 mph - N/A   Clear
8:16 PM 58.1 °F - 34.7 °F 41% 29.86 in 10.0 mi NNW 6.9 mph - N/A   Clear
8:35 PM 57.2 °F - 34.9 °F 43% 29.86 in 10.0 mi NNW 9.2 mph - N/A   Clear
8:36 PM 57.2 °F - 34.7 °F 43% 29.86 in 10.0 mi NNW 9.2 mph - N/A   Clear
8:59 PM 55.2 °F - 35.8 °F 48% 29.86 in 10.0 mi NW 5.8 mph - N/A   Clear
9:17 PM 52.9 °F - 37.0 °F 55% 29.86 in 10.0 mi WNW 5.8 mph - N/A   Clear
9:35 PM 51.6 °F - 37.6 °F 59% 29.86 in 10.0 mi West 4.6 mph - N/A   Scattered Clouds
9:55 PM 50.4 °F - 38.8 °F 65% 29.87 in 10.0 mi West 4.6 mph - N/A   Scattered Clouds
9:56 PM 50.2 °F - 38.8 °F 65% 29.87 in 10.0 mi West 3.5 mph - N/A   Scattered Clouds
10:15 PM 49.3 °F - 39.4 °F 69% 29.88 in 10.0 mi West 3.5 mph - N/A   Clear
10:20 PM 48.9 °F - 39.4 °F 70% 29.88 in 10.0 mi West 3.5 mph - N/A   Clear
10:38 PM 48.6 °F - 39.7 °F 72% 29.88 in 10.0 mi West 3.5 mph - N/A   Clear
10:56 PM 47.8 °F - 39.6 °F 73% 29.89 in 10.0 mi West 3.5 mph - N/A   Clear
11:15 PM 47.1 °F - 39.2 °F 74% 29.89 in 10.0 mi West 4.6 mph - N/A   Clear
11:35 PM 46.8 °F - 39.2 °F 75% 29.89 in 10.0 mi West 4.6 mph - N/A   Clear
11:36 PM 46.8 °F - 39.2 °F 75% 29.89 in 10.0 mi West 4.6 mph - N/A   Clear
11:59 PM 46.2 °F 45.0 °F 39.9 °F 79% 29.90 in 10.0 mi West 3.5 mph - N/A   Clear